| time (UTC) | temp C | wind direction | speed KPH | gust KPH | rain 1hr cm | rain 24hr cm | rain mn cm | humidity % | barometer mb |
| 20260906122237 | 19 | 45 | 3.2 | 4.8 | 0.00 | 0.00 | 0.00 | 94 | 1018.0 |
| 20260906121217 | 19 | 45 | 3.2 | 4.8 | 0.00 | 0.00 | 0.00 | 94 | 1017.8 |
| 20260906120217 | 19 | 45 | 1.6 | 4.8 | 0.00 | 0.00 | 0.00 | 93 | 1017.6 |
| 20260906115217 | 19 | 68 | 1.6 | 3.2 | 0.00 | 0.00 | 0.00 | 93 | 1017.4 |
| 20260906114216 | 18 | 45 | 3.2 | 4.8 | 0.00 | 0.00 | 0.00 | 93 | 1017.2 |
| 20260906113217 | 18 | 0 | 4.8 | 4.8 | 0.00 | 0.00 | 0.00 | 93 | 1017.0 |
| 20260906112217 | 18 | 68 | 4.8 | 8.0 | 0.00 | 0.00 | 0.00 | 93 | 1017.1 |
| 20260906111217 | 18 | 45 | 3.2 | 4.8 | 0.00 | 0.00 | 0.00 | 93 | 1016.9 |
| 20260906110217 | 19 | 45 | 3.2 | 4.8 | 0.00 | 0.00 | 0.00 | 93 | 1017.0 |
| 20260906105237 | 19 | 45 | 3.2 | 6.4 | 0.00 | 0.00 | 0.00 | 93 | 1016.9 |
| 20260906104217 | 19 | 23 | 1.6 | 3.2 | 0.00 | 0.00 | 0.00 | 93 | 1017.0 |
| 20260906103236 | 19 | 0 | 1.6 | 3.2 | 0.00 | 0.00 | 0.00 | 93 | 1016.7 |
| 20260906102216 | 19 | 23 | 4.8 | 8.0 | 0.00 | 0.00 | 0.00 | 93 | 1016.7 |
| 20260906101217 | 19 | 45 | 3.2 | 4.8 | 0.00 | 0.00 | 0.00 | 92 | 1016.6 |
| 20260906100217 | 19 | 23 | 4.8 | 8.0 | 0.00 | 0.00 | 0.00 | 92 | 1016.7 |
| 20260906095216 | 19 | 0.0 | 1.6 | 0.00 | 0.00 | 0.00 | 92 | 1016.7 | |
| 20260906094217 | 19 | 23 | 4.8 | 6.4 | 0.00 | 0.00 | 0.00 | 92 | 1016.6 |
| 20260906093237 | 19 | 45 | 1.6 | 3.2 | 0.00 | 0.00 | 0.00 | 92 | 1016.5 |
| 20260906092216 | 19 | 23 | 1.6 | 3.2 | 0.00 | 0.00 | 0.00 | 92 | 1016.4 |
| 20260906091217 | 19 | 45 | 3.2 | 4.8 | 0.00 | 0.00 | 0.00 | 92 | 1016.5 |
| 20260906090216 | 19 | 45 | 3.2 | 4.8 | 0.00 | 0.00 | 0.00 | 91 | 1016.4 |
| 20260906085217 | 20 | 23 | 1.6 | 3.2 | 0.00 | 0.00 | 0.00 | 91 | 1016.5 |
| 20260906084216 | 20 | 45 | 3.2 | 4.8 | 0.00 | 0.00 | 0.00 | 91 | 1016.3 |
| 20260906083237 | 20 | 23 | 1.6 | 3.2 | 0.00 | 0.00 | 0.00 | 91 | 1016.3 |
| 20260906082216 | 20 | 0.0 | 1.6 | 0.00 | 0.00 | 0.00 | 90 | 1016.4 | |
| 20260906081216 | 20 | 0.0 | 0.0 | 0.00 | 0.00 | 0.00 | 90 | 1016.5 | |
| 20260906080216 | 20 | 315 | 1.6 | 3.2 | 0.00 | 0.00 | 0.00 | 90 | 1016.5 |
| 20260906075216 | 20 | 0.0 | 1.6 | 0.00 | 0.00 | 0.00 | 90 | 1016.4 | |
| 20260906074236 | 20 | 338 | 1.6 | 3.2 | 0.00 | 0.00 | 0.00 | 90 | 1016.4 |
| 20260906073216 | 20 | 45 | 1.6 | 4.8 | 0.00 | 0.00 | 0.00 | 90 | 1016.4 |
| 20260906072256 | 20 | 23 | 1.6 | 4.8 | 0.00 | 0.00 | 0.00 | 90 | 1016.5 |
| 20260906071217 | 20 | 68 | 1.6 | 3.2 | 0.00 | 0.00 | 0.00 | 89 | 1016.5 |
| 20260906070216 | 21 | 23 | 3.2 | 4.8 | 0.00 | 0.00 | 0.00 | 89 | 1016.6 |
| 20260906065216 | 21 | 0.0 | 0.0 | 0.00 | 0.00 | 0.00 | 89 | 1016.6 | |
| 20260906064216 | 21 | 0.0 | 1.6 | 0.00 | 0.00 | 0.00 | 88 | 1016.6 | |
| 20260906063217 | 21 | 45 | 3.2 | 6.4 | 0.00 | 0.00 | 0.00 | 88 | 1016.5 |
| 20260906062236 | 21 | 68 | 3.2 | 3.2 | 0.00 | 0.00 | 0.00 | 88 | 1016.5 |
| 20260906061216 | 21 | 68 | 1.6 | 1.6 | 0.00 | 0.00 | 0.00 | 87 | 1016.5 |
| 20260906060216 | 21 | 0.0 | 1.6 | 0.00 | 0.00 | 0.00 | 87 | 1016.5 | |
| 20260906055216 | 21 | 0 | 8.0 | 14.5 | 0.00 | 0.00 | 0.00 | 87 | 1016.7 |
| 20260906054216 | 21 | 45 | 6.4 | 14.5 | 0.00 | 0.00 | 0.00 | 87 | 1016.6 |
| 20260906053236 | 21 | 45 | 4.8 | 8.0 | 0.00 | 0.00 | 0.00 | 87 | 1016.6 |
| 20260906052216 | 21 | 45 | 4.8 | 6.4 | 0.00 | 0.00 | 0.00 | 87 | 1016.5 |
| 20260906051216 | 21 | 45 | 1.6 | 4.8 | 0.00 | 0.00 | 0.00 | 88 | 1016.4 |
| 20260906050216 | 21 | 68 | 3.2 | 4.8 | 0.00 | 0.00 | 0.00 | 88 | 1016.4 |
| 20260906045217 | 21 | 0 | 3.2 | 4.8 | 0.00 | 0.00 | 0.00 | 87 | 1016.4 |
| 20260906044217 | 21 | 45 | 1.6 | 3.2 | 0.00 | 0.00 | 0.00 | 88 | 1016.3 |
| 20260906043217 | 21 | 23 | 4.8 | 9.7 | 0.00 | 0.00 | 0.00 | 88 | 1016.2 |
| 20260906042217 | 21 | 45 | 6.4 | 8.0 | 0.00 | 0.00 | 0.00 | 88 | 1016.0 |
| 20260906041216 | 21 | 68 | 1.6 | 4.8 | 0.00 | 0.00 | 0.00 | 88 | 1015.7 |
| 20260906040237 | 21 | 0 | 8.0 | 12.9 | 0.00 | 0.00 | 0.00 | 88 | 1015.6 |
| 20260906035216 | 21 | 0 | 8.0 | 12.9 | 0.00 | 0.00 | 0.00 | 87 | 1015.5 |
| 20260906034217 | 21 | 0 | 6.4 | 14.5 | 0.00 | 0.00 | 0.00 | 87 | 1015.5 |
| 20260906033216 | 21 | 0 | 8.0 | 14.5 | 0.00 | 0.00 | 0.00 | 87 | 1015.3 |
| 20260906032237 | 21 | 0 | 8.0 | 14.5 | 0.00 | 0.00 | 0.00 | 87 | 1015.1 |
| 20260906031217 | 21 | 0 | 12.9 | 17.7 | 0.00 | 0.00 | 0.00 | 87 | 1015.3 |
| 20260906030217 | 21 | 0 | 4.8 | 9.7 | 0.00 | 0.00 | 0.00 | 87 | 1015.3 |
| 20260906025216 | 21 | 0 | 8.0 | 12.9 | 0.00 | 0.00 | 0.00 | 86 | 1015.3 |
| 20260906024217 | 21 | 0 | 8.0 | 14.5 | 0.00 | 0.00 | 0.00 | 86 | 1015.4 |
| 20260906023217 | 21 | 0 | 11.3 | 19.3 | 0.00 | 0.00 | 0.00 | 85 | 1015.3 |
| 20260906022236 | 22 | 68 | 8.0 | 11.3 | 0.00 | 0.00 | 0.00 | 85 | 1015.1 |
| 20260906021216 | 22 | 0 | 8.0 | 14.5 | 0.00 | 0.00 | 0.00 | 85 | 1015.1 |
| 20260906020236 | 22 | 90 | 8.0 | 14.5 | 0.00 | 0.00 | 0.00 | 84 | 1015.1 |
| 20260906015217 | 22 | 0 | 9.7 | 19.3 | 0.00 | 0.00 | 0.00 | 84 | 1015.3 |
| 20260906014216 | 22 | 0 | 6.4 | 12.9 | 0.00 | 0.00 | 0.00 | 84 | 1015.2 |
| 20260906013217 | 22 | 45 | 6.4 | 11.3 | 0.00 | 0.00 | 0.00 | 84 | 1015.2 |
| 20260906012236 | 22 | 45 | 9.7 | 14.5 | 0.00 | 0.00 | 0.00 | 84 | 1015.1 |
| 20260906011216 | 22 | 45 | 6.4 | 8.0 | 0.00 | 0.00 | 0.00 | 83 | 1015.2 |
| 20260906010216 | 22 | 0 | 3.2 | 4.8 | 0.00 | 0.00 | 0.00 | 83 | 1015.1 |
| 20260906005216 | 22 | 45 | 4.8 | 6.4 | 0.00 | 0.00 | 0.00 | 83 | 1014.9 |
| 20260906004216 | 22 | 45 | 1.6 | 3.2 | 0.00 | 0.00 | 0.00 | 83 | 1014.8 |
| 20260906003216 | 22 | 23 | 6.4 | 14.5 | 0.00 | 0.00 | 0.00 | 83 | 1014.6 |
| 20260906002216 | 22 | 45 | 4.8 | 8.0 | 0.00 | 0.00 | 0.00 | 84 | 1014.7 |
| 20260906001217 | 22 | 68 | 3.2 | 6.4 | 0.00 | 0.00 | 0.00 | 84 | 1014.4 |
| 20260906000219 | 22 | 45 | 9.7 | 17.7 | 0.00 | 0.00 | 0.00 | 83 | 1014.5 |
| 20260905235216 | 22 | 45 | 17.7 | 27.4 | 0.00 | 0.00 | 0.00 | 82 | 1014.4 |
| 20260905234216 | 23 | 68 | 14.5 | 19.3 | 0.00 | 0.00 | 0.00 | 82 | 1014.5 |
| 20260905233216 | 23 | 23 | 14.5 | 24.1 | 0.00 | 0.00 | 0.00 | 81 | 1014.5 |
| 20260905232216 | 24 | 68 | 11.3 | 19.3 | 0.00 | 0.00 | 0.00 | 80 | 1014.2 |
| 20260905231216 | 25 | 0 | 9.7 | 14.5 | 0.00 | 0.00 | 0.00 | 79 | 1014.3 |
| 20260905230256 | 25 | 0 | 12.9 | 20.9 | 0.00 | 0.00 | 0.00 | 78 | 1014.1 |
| 20260905225216 | 25 | 0 | 11.3 | 20.9 | 0.00 | 0.00 | 0.00 | 76 | 1013.9 |
| 20260905224236 | 26 | 68 | 12.9 | 16.1 | 0.00 | 0.00 | 0.00 | 76 | 1014.1 |
| 20260905223216 | 26 | 45 | 12.9 | 27.4 | 0.00 | 0.00 | 0.00 | 74 | 1013.9 |
| 20260905222216 | 26 | 45 | 11.3 | 17.7 | 0.00 | 0.00 | 0.00 | 74 | 1013.7 |
| 20260905221216 | 27 | 45 | 11.3 | 20.9 | 0.00 | 0.00 | 0.00 | 73 | 1013.8 |
| 20260905220236 | 27 | 68 | 4.8 | 9.7 | 0.00 | 0.00 | 0.00 | 71 | 1014.0 |
| 20260905215216 | 28 | 90 | 9.7 | 19.3 | 0.00 | 0.00 | 0.00 | 69 | 1013.9 |
| 20260905214216 | 28 | 23 | 6.4 | 9.7 | 0.00 | 0.00 | 0.00 | 67 | 1013.7 |
| 20260905213216 | 28 | 0 | 3.2 | 6.4 | 0.00 | 0.00 | 0.00 | 69 | 1013.8 |
| 20260905212256 | 28 | 315 | 6.4 | 8.0 | 0.00 | 0.00 | 0.00 | 69 | 1013.6 |
| 20260905211216 | 27 | 0 | 1.6 | 3.2 | 0.00 | 0.00 | 0.00 | 72 | 1013.7 |
| 20260905210216 | 27 | 68 | 1.6 | 3.2 | 0.00 | 0.00 | 0.00 | 73 | 1013.7 |
| 20260905205216 | 27 | 68 | 6.4 | 9.7 | 0.00 | 0.00 | 0.00 | 73 | 1013.8 |
| 20260905204216 | 27 | 45 | 6.4 | 11.3 | 0.00 | 0.00 | 0.00 | 73 | 1013.9 |
| 20260905203216 | 26 | 315 | 3.2 | 6.4 | 0.00 | 0.00 | 0.00 | 75 | 1014.0 |
| 20260905202256 | 26 | 23 | 4.8 | 6.4 | 0.00 | 0.00 | 0.00 | 75 | 1014.0 |
| 20260905201216 | 26 | 68 | 6.4 | 12.9 | 0.00 | 0.00 | 0.00 | 78 | 1014.0 |
| 20260905200216 | 25 | 90 | 6.4 | 11.3 | 0.00 | 0.00 | 0.00 | 79 | 1013.8 |
| 20260905195216 | 25 | 0 | 4.8 | 8.0 | 0.00 | 0.00 | 0.00 | 79 | 1014.1 |
| 20260905194216 | 25 | 68 | 1.6 | 3.2 | 0.00 | 0.00 | 0.00 | 80 | 1014.1 |
| 20260905193216 | 25 | 23 | 4.8 | 8.0 | 0.00 | 0.00 | 0.00 | 79 | 1014.1 |
| 20260905192216 | 25 | 23 | 6.4 | 9.7 | 0.00 | 0.00 | 0.00 | 79 | 1014.3 |
| 20260905191216 | 25 | 315 | 8.0 | 12.9 | 0.00 | 0.00 | 0.00 | 80 | 1014.3 |
| 20260905190216 | 25 | 0 | 3.2 | 6.4 | 0.00 | 0.00 | 0.00 | 79 | 1014.2 |
| 20260905185216 | 25 | 45 | 6.4 | 9.7 | 0.00 | 0.00 | 0.00 | 79 | 1014.5 |
| 20260905184216 | 25 | 45 | 12.9 | 16.1 | 0.00 | 0.00 | 0.00 | 79 | 1014.4 |
| 20260905183216 | 25 | 45 | 6.4 | 9.7 | 0.00 | 0.00 | 0.00 | 80 | 1014.5 |
| 20260905182215 | 25 | 315 | 4.8 | 9.7 | 0.00 | 0.00 | 0.00 | 79 | 1014.5 |
| 20260905181216 | 25 | 45 | 3.2 | 6.4 | 0.00 | 0.00 | 0.00 | 79 | 1014.4 |
| 20260905180215 | 26 | 23 | 4.8 | 8.0 | 0.00 | 0.00 | 0.00 | 79 | 1014.4 |
| 20260905175216 | 26 | 45 | 6.4 | 11.3 | 0.00 | 0.00 | 0.00 | 78 | 1014.3 |
| 20260905174216 | 26 | 45 | 8.0 | 17.7 | 0.00 | 0.00 | 0.00 | 78 | 1014.3 |
| 20260905173216 | 26 | 68 | 6.4 | 12.9 | 0.00 | 0.00 | 0.00 | 79 | 1014.2 |
| 20260905172216 | 26 | 338 | 8.0 | 16.1 | 0.00 | 0.00 | 0.00 | 77 | 1014.3 |
| 20260905171216 | 26 | 23 | 4.8 | 9.7 | 0.00 | 0.00 | 0.00 | 77 | 1014.4 |
| 20260905170216 | 27 | 45 | 11.3 | 16.1 | 0.00 | 0.00 | 0.00 | 76 | 1014.5 |
| 20260905165215 | 27 | 135 | 3.2 | 6.4 | 0.00 | 0.00 | 0.00 | 76 | 1014.6 |
| 20260905164215 | 27 | 23 | 4.8 | 9.7 | 0.00 | 0.00 | 0.00 | 74 | 1014.6 |
| 20260905163215 | 27 | 45 | 11.3 | 14.5 | 0.00 | 0.00 | 0.00 | 75 | 1014.5 |
| 20260905162215 | 27 | 45 | 3.2 | 6.4 | 0.00 | 0.00 | 0.00 | 75 | 1014.4 |
| 20260905161215 | 27 | 23 | 6.4 | 11.3 | 0.00 | 0.00 | 0.00 | 75 | 1014.5 |
| 20260905160215 | 27 | 68 | 11.3 | 20.9 | 0.00 | 0.00 | 0.00 | 76 | 1014.4 |
| 20260905155216 | 27 | 45 | 8.0 | 12.9 | 0.00 | 0.00 | 0.00 | 77 | 1014.4 |
| 20260905154217 | 27 | 45 | 4.8 | 12.9 | 0.00 | 0.00 | 0.00 | 77 | 1014.2 |
| 20260905153217 | 27 | 23 | 4.8 | 12.9 | 0.00 | 0.00 | 0.00 | 78 | 1014.2 |
| 20260905152218 | 26 | 45 | 6.4 | 11.3 | 0.00 | 0.00 | 0.00 | 79 | 1014.1 |
| 20260905151217 | 26 | 68 | 8.0 | 14.5 | 0.00 | 0.00 | 0.00 | 82 | 1014.0 |
| 20260905150237 | 25 | 45 | 6.4 | 11.3 | 0.00 | 0.00 | 0.00 | 84 | 1013.9 |
| 20260905145217 | 25 | 45 | 8.0 | 14.5 | 0.00 | 0.00 | 0.00 | 83 | 1013.8 |
| 20260905144237 | 25 | 68 | 14.5 | 19.3 | 0.00 | 0.00 | 0.00 | 82 | 1013.7 |
| 20260905143237 | 25 | 45 | 4.8 | 8.0 | 0.00 | 0.00 | 0.00 | 84 | 1013.8 |
| 20260905142217 | 25 | 68 | 8.0 | 14.5 | 0.00 | 0.00 | 0.00 | 85 | 1013.9 |
| 20260905141217 | 24 | 23 | 12.9 | 20.9 | 0.00 | 0.00 | 0.00 | 87 | 1013.7 |
| 20260905140217 | 24 | 45 | 16.1 | 22.5 | 0.00 | 0.00 | 0.00 | 89 | 1013.6 |
| 20260905135258 | 23 | 23 | 6.4 | 12.9 | 0.00 | 0.00 | 0.00 | 90 | 1013.5 |
| 20260905134217 | 23 | 68 | 6.4 | 11.3 | 0.00 | 0.00 | 0.00 | 92 | 1013.6 |
| 20260905133217 | 22 | 90 | 6.4 | 8.0 | 0.00 | 0.00 | 0.00 | 92 | 1013.7 |
| 20260905132217 | 22 | 45 | 4.8 | 9.7 | 0.00 | 0.00 | 0.00 | 92 | 1014.0 |
| 20260905131217 | 22 | 23 | 6.4 | 9.7 | 0.00 | 0.00 | 0.00 | 92 | 1013.9 |
| 20260905130217 | 22 | 45 | 9.7 | 14.5 | 0.00 | 0.00 | 0.00 | 92 | 1013.4 |
| 20260905125217 | 22 | 45 | 8.0 | 16.1 | 0.00 | 0.00 | 0.00 | 92 | 1013.3 |
| 20260905124217 | 22 | 23 | 8.0 | 14.5 | 0.00 | 0.00 | 0.00 | 92 | 1013.0 |
| 20260905123217 | 23 | 68 | 8.0 | 12.9 | 0.00 | 0.00 | 0.00 | 92 | 1013.0 |